Location: Fish Springs
(37.0754°N, 118.2540°W)
Time: 12:28:37
(UTC+00:00)

ISS - Visible Passes

Search period start: 26 January 2022 00:00
Search period end: 05 February 2022 00:00
Orbit: 413 x 422 km, 51.6° (Epoch: 26 January)

Date Brightness Start Highest point End Pass type
(mag) Time Alt. Az. Time Alt. Az. Time Alt. Az.
31 Jan -1.4 02:39:23 10° N 02:40:23 13° N 02:40:23 13° N visible
01 Feb -1.3 01:52:05 10° N 01:52:30 10° NNE 01:52:55 10° NNE visible
01 Feb -0.9 03:26:47 10° NW 03:27:11 13° NW 03:27:11 13° NW visible
02 Feb -2.4 02:38:36 10° NNW 02:41:07 25° NNE 02:41:07 25° NNE visible
03 Feb -2.0 01:50:29 10° NNW 01:52:50 18° NNE 01:55:10 10° ENE visible
03 Feb -1.6 03:26:32 10° NW 03:28:05 25° WNW 03:28:05 25° WNW visible
04 Feb -3.9 02:38:01 10° NW 02:41:20 69° NE 02:42:17 42° ESE visible
